timestamp,wind_dir_avg,wind_spd_avg,wind_spd_max_dir,wind_spd_gust,battery_voltage,lat,long
2021-05-08 00:04:01+00:00,76.0,3.72,84.0,5.91,12.73,47.59359,-54.27349
2021-05-08 00:14:01+00:00,83.0,4.52,91.0,6.41,12.57,47.59359,-54.27349
2021-05-08 00:24:01+00:00,82.0,4.93,82.0,6.59,12.57,47.59359,-54.27349
2021-05-08 00:34:01+00:00,79.0,5.75,78.0,6.88,12.57,47.59359,-54.27349
2021-05-08 00:44:01+00:00,76.0,4.33,85.0,6.47,12.57,47.59359,-54.27349
2021-05-08 00:54:01+00:00,73.0,4.28,70.0,5.45,12.57,47.59359,-54.27349
2021-05-08 01:04:01+00:00,76.0,4.08,80.0,6.37,12.57,47.59359,-54.27349
2021-05-08 01:14:01+00:00,72.0,4.44,71.0,5.45,12.57,47.59359,-54.27349
2021-05-08 01:24:01+00:00,74.0,4.5,89.0,6.58,12.57,47.59359,-54.27349
2021-05-08 01:34:01+00:00,72.0,4.25,78.0,6.53,12.57,47.59359,-54.27349
2021-05-08 01:44:01+00:00,80.0,5.27,85.0,6.86,12.57,47.59359,-54.27349
2021-05-08 01:54:01+00:00,84.0,6.01,86.0,6.81,12.57,47.59359,-54.27349
2021-05-08 02:04:01+00:00,84.0,6.03,82.0,6.85,12.57,47.59359,-54.27349
2021-05-08 02:14:01+00:00,82.0,5.24,90.0,6.8,12.49,47.59359,-54.27349
2021-05-08 02:24:01+00:00,84.0,5.21,82.0,6.82,12.49,47.59359,-54.27349
2021-05-08 02:34:01+00:00,82.0,5.4,87.0,6.8,12.49,47.59359,-54.27349
2021-05-08 02:44:01+00:00,84.0,6.02,79.0,6.79,12.49,47.59359,-54.27349
2021-05-08 02:54:01+00:00,87.0,5.38,90.0,6.62,12.49,47.59359,-54.27349
2021-05-08 03:04:01+00:00,76.0,4.47,91.0,6.28,12.49,47.59359,-54.27349
2021-05-08 03:14:00+00:00,72.0,5.71,70.0,6.25,12.49,47.59359,-54.27349
2021-05-08 03:24:00+00:00,69.0,6.14,67.0,6.71,12.49,47.59359,-54.27349
2021-05-08 03:34:00+00:00,67.0,5.96,66.0,6.56,12.49,47.59359,-54.27349
2021-05-08 03:44:00+00:00,68.0,5.43,67.0,5.83,12.49,47.59359,-54.27349
2021-05-08 03:54:00+00:00,70.0,4.85,68.0,5.27,12.49,47.59359,-54.27349
2021-05-08 04:04:00+00:00,56.0,3.98,62.0,4.78,12.49,47.59359,-54.27349
2021-05-08 04:14:01+00:00,64.0,4.36,65.0,4.96,12.49,47.59359,-54.27349
2021-05-08 04:24:01+00:00,60.0,4.52,59.0,5.05,12.49,47.59359,-54.27349
2021-05-08 04:34:01+00:00,55.0,3.69,60.0,4.36,12.49,47.59359,-54.27349
2021-05-08 04:44:01+00:00,52.0,4.45,51.0,5.01,12.49,47.59359,-54.27349
2021-05-08 04:54:01+00:00,59.0,5.18,58.0,6.01,12.49,47.59359,-54.27349
2021-05-08 05:04:01+00:00,63.0,5.02,64.0,5.78,12.49,47.59359,-54.27349
2021-05-08 05:14:01+00:00,63.0,4.56,62.0,5.17,12.49,47.59359,-54.27349
2021-05-08 05:24:01+00:00,61.0,4.2,64.0,5.09,12.49,47.59359,-54.27349
2021-05-08 05:34:01+00:00,57.0,4.23,58.0,4.91,12.49,47.59359,-54.27349
2021-05-08 05:44:01+00:00,53.0,3.43,50.0,3.98,12.49,47.59359,-54.27349
2021-05-08 05:54:01+00:00,54.0,3.36,56.0,3.63,12.49,47.59359,-54.27349
2021-05-08 06:04:01+00:00,61.0,2.95,59.0,3.69,12.49,47.59359,-54.27349
2021-05-08 06:14:01+00:00,67.0,3.94,74.0,4.61,12.41,47.59359,-54.27349
2021-05-08 06:24:01+00:00,71.0,4.19,73.0,5.07,12.41,47.59359,-54.27349
2021-05-08 06:34:01+00:00,64.0,3.58,69.0,4.21,12.41,47.59359,-54.27349
2021-05-08 06:44:01+00:00,60.0,3.46,57.0,4.12,12.41,47.59359,-54.27349
2021-05-08 06:54:01+00:00,61.0,3.55,60.0,4.45,12.41,47.59359,-54.27349
2021-05-08 07:04:01+00:00,62.0,3.87,65.0,4.81,12.41,47.59359,-54.27349
2021-05-08 07:14:00+00:00,71.0,4.07,69.0,4.87,12.41,47.59359,-54.27349
2021-05-08 07:24:00+00:00,71.0,4.56,72.0,5.31,12.41,47.59359,-54.27349
2021-05-08 07:34:00+00:00,70.0,3.78,69.0,4.62,12.41,47.59359,-54.27349
2021-05-08 07:44:00+00:00,69.0,3.51,71.0,3.95,12.41,47.59359,-54.27349
2021-05-08 07:54:00+00:00,70.0,3.98,70.0,4.44,12.41,47.59359,-54.27349
2021-05-08 08:04:00+00:00,69.0,4.14,72.0,4.69,12.41,47.59359,-54.27349
2021-05-08 08:14:00+00:00,69.0,3.86,71.0,4.26,12.33,47.59359,-54.27349
2021-05-08 08:24:00+00:00,63.0,3.86,66.0,4.37,12.33,47.59359,-54.27349
2021-05-08 08:34:00+00:00,57.0,3.66,57.0,4.12,12.33,47.59359,-54.27349
2021-05-08 08:44:00+00:00,54.0,3.73,58.0,4.27,12.33,47.59359,-54.27349
2021-05-08 08:54:00+00:00,57.0,3.35,60.0,3.78,12.33,47.59359,-54.27349
2021-05-08 09:04:00+00:00,53.0,3.88,55.0,4.25,12.33,47.59359,-54.27349
2021-05-08 09:14:01+00:00,52.0,3.66,52.0,4.13,12.33,47.59359,-54.27349
2021-05-08 09:24:01+00:00,57.0,3.08,59.0,3.38,12.33,47.59359,-54.27349
2021-05-08 09:34:01+00:00,59.0,3.42,54.0,3.92,12.33,47.59359,-54.27349
2021-05-08 09:44:01+00:00,62.0,3.2,61.0,3.76,12.33,47.59359,-54.27349
2021-05-08 09:54:01+00:00,69.0,3.3,71.0,3.8,12.33,47.59359,-54.27349
2021-05-08 10:04:01+00:00,58.0,4.07,57.0,4.77,12.33,47.59359,-54.27349
2021-05-08 10:14:01+00:00,58.0,4.6,58.0,5.14,12.65,47.59359,-54.27349
2021-05-08 10:24:01+00:00,59.0,4.85,58.0,5.34,12.65,47.59359,-54.27349
2021-05-08 10:34:01+00:00,53.0,4.21,56.0,4.82,12.65,47.59359,-54.27349
2021-05-08 10:44:01+00:00,57.0,3.75,56.0,4.27,12.65,47.59359,-54.27349
2021-05-08 10:54:01+00:00,59.0,4.28,65.0,4.98,12.65,47.59359,-54.27349
2021-05-08 11:04:01+00:00,56.0,4.5,59.0,5.21,12.65,47.59359,-54.27349
2021-05-08 11:14:01+00:00,52.0,4.76,52.0,5.3,13.6,47.59359,-54.27349
2021-05-08 11:24:01+00:00,56.0,4.21,56.0,4.6,13.6,47.59359,-54.27349
2021-05-08 11:34:01+00:00,57.0,3.49,61.0,4.16,13.6,47.59359,-54.27349
2021-05-08 11:44:01+00:00,51.0,3.86,54.0,4.3,13.6,47.59359,-54.27349
2021-05-08 11:54:01+00:00,48.0,4.51,49.0,5.1,13.6,47.59359,-54.27349
2021-05-08 12:04:01+00:00,46.0,4.61,49.0,5.34,13.6,47.59359,-54.27349
2021-05-08 12:14:00+00:00,51.0,4.09,51.0,4.45,13.84,47.59359,-54.27349
2021-05-08 12:24:00+00:00,48.0,4.11,49.0,4.81,13.84,47.59359,-54.27349
2021-05-08 12:34:00+00:00,49.0,4.1,48.0,4.83,13.84,47.59359,-54.27349
2021-05-08 12:44:00+00:00,53.0,3.61,51.0,4.22,13.84,47.59359,-54.27349
2021-05-08 12:54:00+00:00,54.0,5.01,55.0,5.78,13.84,47.59359,-54.27349
2021-05-08 13:04:00+00:00,54.0,4.4,56.0,4.82,13.84,47.59359,-54.27349
2021-05-08 13:14:01+00:00,55.0,3.89,55.0,4.26,13.84,47.59359,-54.27349
2021-05-08 13:24:01+00:00,52.0,4.61,53.0,5.04,13.84,47.59359,-54.27349
2021-05-08 13:34:01+00:00,40.0,4.72,41.0,5.22,13.84,47.59359,-54.27349
2021-05-08 13:44:01+00:00,39.0,4.35,44.0,4.83,13.84,47.59359,-54.27349
2021-05-08 13:54:01+00:00,39.0,4.81,40.0,4.99,13.84,47.59359,-54.27349
2021-05-08 14:04:01+00:00,36.0,4.96,38.0,5.2,13.84,47.59359,-54.27349
2021-05-08 14:14:01+00:00,41.0,4.68,44.0,5.04,13.76,47.59359,-54.27349
2021-05-08 14:24:01+00:00,42.0,4.32,46.0,4.63,13.76,47.59359,-54.27349
2021-05-08 14:34:01+00:00,45.0,5.33,47.0,5.91,13.76,47.59359,-54.27349
2021-05-08 14:44:01+00:00,46.0,5.3,48.0,5.79,13.76,47.59359,-54.27349
2021-05-08 14:54:01+00:00,44.0,3.18,47.0,3.66,13.76,47.59359,-54.27349
2021-05-08 15:04:01+00:00,48.0,2.03,45.0,2.64,13.76,47.59359,-54.27349
2021-05-08 15:14:01+00:00,53.0,2.29,46.0,3.08,13.76,47.59359,-54.27349
2021-05-08 15:24:01+00:00,90.0,2.53,107.0,4.42,13.76,47.59359,-54.27349
2021-05-08 15:34:01+00:00,81.0,3.05,72.0,4.34,13.76,47.59359,-54.27349
2021-05-08 15:44:01+00:00,80.0,3.67,85.0,5.12,13.76,47.59359,-54.27349
2021-05-08 15:54:01+00:00,78.0,3.61,72.0,4.43,13.76,47.59359,-54.27349
2021-05-08 16:04:01+00:00,81.0,3.41,90.0,4.71,13.76,47.59359,-54.27349
2021-05-08 16:14:01+00:00,78.0,3.63,78.0,6.18,13.68,47.59359,-54.27349
2021-05-08 16:24:01+00:00,75.0,3.79,75.0,4.98,13.68,47.59359,-54.27349
2021-05-08 16:34:01+00:00,74.0,3.48,78.0,4.6,13.68,47.59359,-54.27349
2021-05-08 16:44:01+00:00,77.0,3.17,68.0,3.87,13.68,47.59359,-54.27349
2021-05-08 16:54:01+00:00,71.0,4.94,64.0,5.68,13.68,47.59359,-54.27349
2021-05-08 17:04:01+00:00,77.0,4.69,82.0,6.76,13.68,47.59359,-54.27349
2021-05-08 17:14:01+00:00,74.0,4.74,56.0,6.15,13.68,47.59359,-54.27349
2021-05-08 17:24:01+00:00,76.0,3.66,72.0,5.67,13.68,47.59359,-54.27349
2021-05-08 17:34:01+00:00,79.0,3.0,71.0,4.96,13.68,47.59359,-54.27349
2021-05-08 17:44:01+00:00,83.0,3.05,71.0,4.32,13.68,47.59359,-54.27349
2021-05-08 17:54:01+00:00,72.0,3.44,71.0,5.12,13.68,47.59359,-54.27349
2021-05-08 18:04:01+00:00,82.0,4.88,100.0,6.8,13.68,47.59359,-54.27349
2021-05-08 18:14:01+00:00,73.0,4.7,71.0,6.38,13.92,47.59359,-54.27349
2021-05-08 18:24:01+00:00,73.0,5.62,62.0,7.36,13.92,47.59359,-54.27349
2021-05-08 18:34:01+00:00,74.0,5.52,72.0,7.08,13.92,47.59359,-54.27349
2021-05-08 18:44:01+00:00,72.0,6.52,71.0,7.55,13.92,47.59359,-54.27349
2021-05-08 18:54:01+00:00,68.0,6.27,57.0,7.61,13.92,47.59359,-54.27349
2021-05-08 19:04:01+00:00,75.0,4.7,73.0,6.99,13.92,47.59359,-54.27349
2021-05-08 19:14:01+00:00,71.0,5.32,59.0,7.68,13.84,47.59359,-54.27349
2021-05-08 19:24:01+00:00,71.0,5.65,66.0,8.03,13.84,47.59359,-54.27349
2021-05-08 19:34:01+00:00,73.0,5.19,77.0,7.38,13.84,47.59359,-54.27349
2021-05-08 19:44:01+00:00,72.0,4.1,89.0,6.59,13.84,47.59359,-54.27349
2021-05-08 19:54:01+00:00,76.0,4.91,82.0,6.39,13.84,47.59359,-54.27349
2021-05-08 20:04:01+00:00,73.0,5.84,63.0,8.05,13.84,47.59359,-54.27349
2021-05-08 20:14:01+00:00,73.0,4.68,56.0,6.68,13.84,47.59359,-54.27349
2021-05-08 20:24:01+00:00,79.0,4.06,56.0,5.74,13.84,47.59359,-54.27349
2021-05-08 20:34:01+00:00,77.0,5.47,80.0,8.01,13.84,47.59359,-54.27349
2021-05-08 20:44:01+00:00,80.0,4.41,80.0,6.9,13.84,47.59359,-54.27349
2021-05-08 20:54:01+00:00,79.0,5.92,81.0,9.64,13.84,47.59359,-54.27349
2021-05-08 21:04:01+00:00,107.0,5.03,110.0,7.31,13.84,47.59359,-54.27349
2021-05-08 21:14:01+00:00,93.0,3.99,93.0,6.43,13.6,47.59359,-54.27349
2021-05-08 21:24:01+00:00,79.0,4.46,79.0,6.42,13.6,47.59359,-54.27349
2021-05-08 21:34:01+00:00,93.0,3.68,117.0,7.18,13.6,47.59359,-54.27349
2021-05-08 21:44:01+00:00,91.0,4.12,125.0,6.42,13.6,47.59359,-54.27349
2021-05-08 21:54:01+00:00,93.0,5.71,113.0,9.77,13.6,47.59359,-54.27349
2021-05-08 22:04:01+00:00,82.0,5.36,76.0,7.19,13.6,47.59359,-54.27349
2021-05-08 22:14:01+00:00,79.0,5.27,85.0,8.17,13.05,47.59359,-54.27349
2021-05-08 22:24:01+00:00,75.0,6.07,66.0,8.49,13.05,47.59359,-54.27349
2021-05-08 22:34:01+00:00,74.0,6.22,57.0,8.22,13.05,47.59359,-54.27349
2021-05-08 22:44:01+00:00,81.0,5.85,74.0,7.57,13.05,47.59359,-54.27349
2021-05-08 22:54:01+00:00,75.0,6.43,59.0,8.28,13.05,47.59359,-54.27349
2021-05-08 23:04:01+00:00,82.0,6.04,79.0,8.6,13.05,47.59359,-54.27349
2021-05-08 23:14:00+00:00,84.0,5.08,84.0,8.03,12.65,47.59359,-54.27349
2021-05-08 23:24:00+00:00,80.0,5.87,86.0,7.6,12.65,47.59359,-54.27349
2021-05-08 23:34:00+00:00,77.0,5.86,86.0,8.09,12.65,47.59359,-54.27349
2021-05-08 23:44:00+00:00,78.0,4.31,73.0,6.45,12.65,47.59359,-54.27349
2021-05-08 23:54:00+00:00,79.0,4.16,75.0,6.75,12.65,47.59359,-54.27349
